Weather History for Munising, MI

Change the Weather History Date:

Wednesday, May 1, 2013

  Actual Average (KISQ) Record (KISQ)
Temperature  
Mean Temperature 46 °F -  
Max Temperature 57 °F 54 °F 68 °F (2013)
Min Temperature 37 °F 34 °F 19 °F (1966)
Degree Days  
Heating Degree Days 19    
Moisture  
Dew Point 38 °F    
Average Humidity 78    
Maximum Humidity 93    
Minimum Humidity 61    
Precipitation  
Precipitation 0.08 in - - ()
Sea Level Pressure  
Sea Level Pressure 30.18 in    
Wind  
Wind Speed 7 mph (North)    
Max Wind Speed 20 mph    
Max Gust Speed 25 mph    
Averages and records for this station are not official NWS values.
T = Trace of Precipitation, MM = Missing Value Source: NWS Daily Summary

Daily Weather History Graph

Daily Weather History Graph

Search for Another Location

Airport:

Trip Planner

Search our weather history database for the weather conditions in past years. The results will help you decide how hot, cold, wet, or windy it might be!

Date:

Astronomy

May. 01, 2013 Rise Set
Actual Time 6:32 AM EDT 8:56 PM EDT
Civil Twilight 5:58 AM EDT 9:29 PM EDT
Nautical Twilight 5:16 AM EDT 10:11 PM EDT
Astronomical Twilight 4:29 AM EDT 10:59 PM EDT
Moon 2:06 AM EDT (5/1) 12:09 PM EDT (5/1)
Length of Visible Light 15h 30m
Length of Day
14h 23m
Waning Gibbous, 59% of the Moon is Illuminated
May 1
Waning Gibbous
May 2
Last Quarter
May 9
New
May 18
First Quarter
May 25
Full

Hourly Weather History & Observations

Time (EDT) Temp. Windchill Dew Point Humidity Pressure Visibility Wind Dir Wind Speed Gust Speed Precip Events Conditions
12:56 AM 55.9 °F - 48.0 °F 75% 29.83 in - Calm Calm - N/A   Unknown
1:56 AM 50.0 °F - 45.0 °F 83% 29.91 in - Calm Calm - 0.01 in   Unknown
2:56 AM 48.9 °F - 44.1 °F 83% 29.93 in - NNW 5.8 mph - 0.05 in   Unknown
3:56 AM 48.0 °F - 43.0 °F 83% 29.99 in - ENE 3.5 mph - 0.02 in   Unknown
4:56 AM 45.0 °F 42.6 °F 42.1 °F 90% 29.96 in - NE 4.6 mph - N/A   Unknown
5:56 AM 45.0 °F 43.5 °F 43.0 °F 93% 30.02 in - East 3.5 mph - N/A   Unknown
6:56 AM 46.9 °F - 45.0 °F 93% 30.04 in - Calm Calm - N/A   Unknown
7:56 AM 48.9 °F - 46.9 °F 93% 30.08 in - Calm Calm - N/A   Unknown
8:56 AM 46.0 °F - 43.0 °F 89% 30.10 in - Calm Calm - N/A   Unknown
9:56 AM 46.0 °F 42.5 °F 43.0 °F 89% 30.12 in - ENE 6.9 mph - N/A   Unknown
10:56 AM 51.1 °F - 39.0 °F 63% 30.15 in - North 9.2 mph - N/A   Unknown
11:56 AM 50.0 °F - 37.0 °F 61% 30.21 in - NNW 19.6 mph 25.3 mph N/A   Unknown
12:56 PM 44.1 °F 36.8 °F 34.0 °F 68% 30.22 in - NNW 16.1 mph 21.9 mph N/A   Unknown
1:56 PM 45.0 °F 38.2 °F 35.1 °F 68% 30.25 in - NNW 15.0 mph - N/A   Unknown
2:56 PM 44.1 °F 36.8 °F 35.1 °F 71% 30.27 in - NNW 16.1 mph - N/A   Unknown
3:56 PM 43.0 °F 34.8 °F 35.1 °F 74% 30.30 in - NNW 18.4 mph - N/A   Unknown
4:56 PM 41.0 °F 35.8 °F 34.0 °F 76% 30.31 in - NNW 8.1 mph - N/A   Unknown
5:56 PM 43.0 °F 35.1 °F 34.0 °F 71% 30.32 in - NNW 17.3 mph - N/A   Unknown
6:56 PM 42.1 °F 34.5 °F 32.0 °F 67% 30.34 in - North 15.0 mph 24.2 mph N/A   Unknown
7:56 PM 39.9 °F 32.1 °F 30.9 °F 70% 30.36 in - NNW 13.8 mph - N/A   Unknown
8:56 PM 39.0 °F 31.4 °F 30.9 °F 73% 30.38 in - North 12.7 mph - N/A   Unknown
9:56 PM 37.9 °F 29.2 °F 30.9 °F 76% 30.39 in - North 15.0 mph 20.7 mph N/A   Unknown
10:56 PM 37.9 °F 27.9 °F 32.0 °F 79% 30.40 in - NNW 19.6 mph 25.3 mph N/A   Unknown
11:56 PM 37.0 °F 28.1 °F 32.0 °F 82% 30.40 in - NNW 15.0 mph 24.2 mph N/A   Unknown